Location: ??
(31.2270°N, 121.1547°E)
Time: 04:24:10
(UTC+00:00)

Daily predictions for brighter satellites

Satellite Brightness Start Highest point End
(mag) Time Altitude Azimuth Time Altitude Azimuth Time Altitude Azimuth
Cosmos 676 Rocket 4.1 11:17:39 10° N 11:22:54 65° ENE 11:28:09 10° SSE
H-2A ROCKET BODY 3.5 11:22:04 10° S 11:24:55 18° SE 11:30:44 10° E
STARLINK-1125 4.4 11:21:59 10° NNW 11:25:54 40° NE 11:29:48 10° ESE
Aureole 2 Rocket 2.1 11:24:05 10° S 11:27:10 59° ESE 11:30:07 10° NNE
CZ-2C R/B 3.2 11:22:51 10° NNE 11:28:08 41° E 11:33:20 10° SSE
Cosmos 1975 2.8 11:24:46 10° N 11:28:47 74° E 11:32:45 10° S
Cosmos 1943 Rocket 3.2 11:24:39 10° SSE 11:28:57 24° E 11:33:17 10° NE
STARLINK-1109 4.2 11:26:54 10° NNW 11:30:53 44° NE 11:34:50 10° ESE
H-2A R/B 2.1 11:26:10 10° SSE 11:31:13 86° ENE 11:36:27 10° N
STARLINK-1091 4.1 11:31:50 10° NNW 11:35:51 50° NE 11:39:39 11° ESE
STARLINK-52 2.8 11:34:36 10° SW 11:37:45 67° SE 11:40:56 10° NE
SJ-6B 3.0 11:34:44 10° SSE 11:38:19 48° ENE 11:41:55 10° N
STARLINK-1072 3.9 11:36:49 10° NW 11:40:54 56° NE 11:44:29 13° ESE
Intelsat 5-1 Rocket 3.0 11:43:25 10° S 11:43:56 10° SSE 11:44:11 10° SSE
STARLINK-1096 3.8 11:41:43 10° NW 11:45:50 63° NE 11:49:14 14° SE
Cosmos 1544 3.6 11:43:30 10° NNW 11:47:03 58° W 11:50:33 10° S
Cosmos 1833 Rocket 2.8 11:42:13 10° NNW 11:47:50 83° WSW 11:53:26 10° SSE
STARLINK-1079 3.7 11:46:43 10° NW 11:50:51 72° NE 11:54:03 16° SE
STARLINK-1116 3.6 11:51:40 10° NW 11:55:49 81° NE 11:58:50 18° SE
